Regional Weather Roundup
Issued by NWS Cleveland, OH

Home | Current Version | Previous Version | Graphics & Text | Print | Product List | Glossary On
Versions: 1 2 3 4 5 6 7 8 9 10 11 12 13 14 15 16 17 18 19 20 21 22 23 24 25 26 27 28 29 30 31 32 33 34 35 36 37 38 39 40 41 42 43 44 45 46 47 48 49 50
000
ASUS41 KCLE 311010
RWRCLE
OHIO REGIONAL WEATHER ROUNDUP
NATIONAL WEATHER SERVICE WILMINGTON, OH
600 AM EDT THU JUL 31 2014

NOTE: "FAIR" INDICATES FEW OR NO CLOUDS BELOW 12,000 FEET WITH NO
SIGNIFICANT WEATHER AND/OR OBSTRUCTIONS TO VISIBILITY.

OHZ001>008-015>018-024>027-034-035-043-044-311100-
   NORTHWEST OHIO

CITY           SKY/WX    TMP DP  RH WIND       PRES   REMARKS
DEFIANCE       CLEAR     53  50  89 CALM      30.04R FOG
FINDLAY        CLEAR     57  54  89 SW5       30.03S
TOLEDO EXPRESS CLEAR     50  50 100 CALM      30.03R FOG
TOLEDO METCALF CLEAR     55  51  86 SW5       30.04R
LIMA           CLEAR     61  59  93 S5        30.05R FOG
$$

OHZ009>014-019>023-028>033-038-089-311100-
   NORTHEAST OHIO

CITY           SKY/WX    TMP DP  RH WIND       PRES   REMARKS
CLE-HOPKINS    PTCLDY    59  57  93 SW7       30.03R
CLE-LAKEFRONT  PTCLDY    62  58  86 S8        30.00R
CUY CO. ARPT   NOT AVBL
LORAIN-ELYRIA  CLEAR     60  56  86 W6        30.03R
ASHTABULA      CLOUDY    59  57  93 SW6       30.02R
AKRON-CANTON   PTCLDY    58  55  90 SW6       30.04S FOG
WOOSTER        PTCLDY    57  56  96 SW6       30.04S FOG
MANSFIELD      CLEAR     61  59  93 W5        30.05R
YOUNGSTOWN     CLOUDY    61  59  94 SW8       30.04R FOG
$$

OHZ042-051>053-060>062-070>072-077>081-311100-
  SOUTHWEST OHIO

CITY           SKY/WX    TMP DP  RH WIND       PRES   REMARKS
CINC-COVINGTON CLEAR     63  59  87 SW5       30.08R
CINC-LUNKEN    CLEAR     60  59  96 CALM      30.08R FOG
HAMILTON       PTCLDY    58  57  97 CALM      30.08R FOG
DAYTON         PTCLDY    63  59  87 SW5       30.08R
WRIGHT-PAT AFB CLEAR     59  59 100 S2        30.07R
DAYTON GENERAL CLEAR     60  59  96 S3        30.07R FOG
WILMINGTON     CLEAR     58  56  93 SW5       30.08R FOG
$$

OHZ036-037-039>041-045>050-054>059-063>069-073>076-082>088-311100-
  CENTRAL AND SOUTHEAST OHIO

CITY           SKY/WX    TMP DP  RH WIND       PRES   REMARKS
COLUMBUS       PTCLDY    62  58  86 S5        30.07R
OSU AIRPORT    CLEAR     60  58  92 SW3       30.06S
BOLTON FIELD   CLEAR     58  58 100 SW5       30.07R
RICKENBACK AFB CLEAR     60  55  86 S6        30.07R HAZE
NEWARK         CLEAR     58  56  93 MISG      30.06R
MARION         PTCLDY    60  57  89 SW5       30.06R
LANCASTER      CLEAR     61  57  87 S3        30.07R
ZANESVILLE     PTCLDY    59  57  93 SW3       30.07R
NEW PHILLY     CLOUDY    60  59  96 SE5       30.06R
$$



USA.gov is the U.S. government's official web portal to all federal, state and local government web resources and services.